Volver al catálogo

CZ-6A DEB

ActivoPO
NORAD 55222·DEBRIS·🇨🇳 China

Lanzado Nov 11, 2022 desde Taiyuan Satellite Launch Center

Loading…

Próximos Pases (próximas 24 horas)

TLE

ActualizadoSource: Space-Track

Época: Sep 14, 2026, 15:12 UTC

1 55222U 22151WP  26257.63390029  .00008233  00000-0  12203-2 0  9997
2 55222  98.6240 328.8070 0063869   5.9544 354.2407 14.73989785198008

Sigue CZ-6A DEB en tiempo real con AllMySat

Download on the App Store